www.pogodaiklimat.ru

Погода и климат >> Архив погоды >> Таиланд >> Пхетчабури


ПОГОДА в Пхетчабури

  • Прогноз погоды в Пхетчабури
  • Монитор погоды в Пхетчабури

АРХИВ ПОГОДЫ в Пхетчабури

Время (UTC), дата Ветер
(напр.,м/с)
 
Видим.   Явления Облачность Т
(С)
Тd
(С)
f
(%)
Тe
(С)
Тes
(С)
Комфортность P
(гПа)
Po
(гПа)
Тmin
(С)
Tmax
(С)
R
(мм)
R24
(мм)
S
(см)
15 12.08 З 2 11 км 10/4 600 м
[Sc Ac As Cs]
+27.4 +24.2 83 +38 +38 очень
душно
1008.7 1008.2
18 12.08 штиль 0 11 км 8/3 600 м
[Sc Ac lent Cs]
+27.8 +24.6 83 +39 +39 очень
душно
1007.9 1007.5
21 12.08 ЮЗ 3 11 км 8/3 600 м
[Sc Ac lent Cs]
+27.1 +24.2 84 +38 +38 очень
душно
1006.7 1006.3
00 13.08 ЮЗ 2 11 км 10/4 600 м
[Sc Ac As Cs]
+26.7 +24.2 86 +37 +37 очень
душно
1008.4 1008.0 +26.0
03 13.08 ЮЗ 4 8000 м слаб. дождь 9/4 600 м
[Sc Ac As Cs]
+28.7 +24.2 77 +40 +44 очень
душно
1010.2 1009.7 0.1
06 13.08 Ю 5 11 км {дождь} 9/3 600 м
[Cu Sc Ac lent Cs]
+31.5 +26.8 76 +49 +53 опасность
перегрева
1008.6 1008.2 0.1
09 13.08 Ю 12 8000 м слаб. дождь 9/4 600 м
[Cu Sc Ac As Cs]
+31.6 +27.3 78 +50 +50 опасность
перегрева
1007.1 1006.6 0.4
12 13.08 С 2 11 км {дождь} 10/4 600 м
[Sc Ac As Cs]
+27.9 +26.3 91 +42 +42 опасность
перегрева
1008.0 1007.5 +33.5 9
15 13.08 штиль 0 11 км 10/4 600 м
[Sc Ac As Cs]
+27.3 +25.4 89 +40 +40 очень
душно
1010.3 1009.9
18 13.08 штиль 0 11 км 10/4 600 м
[Sc Ac As Cs]
+27.0 +24.8 88 +39 +39 очень
душно
1010.0 1009.6
21 13.08 штиль 0 11 км 10/4 600 м
[Sc Ac As Cs]
+26.6 +23.5 83 +36 +36 очень
душно
1008.3 1007.9
00 14.08 З 2 11 км 10/4 600 м
[Sc Ac As Cs]
+26.5 +24.0 86 +37 +37 очень
душно
1009.0 1008.6 +26.0
03 14.08 штиль 0 11 км 10/4 600 м
[Sc Ac As Cs]
+28.7 +24.4 78 +41 +47 опасность
перегрева
1010.4 1010.0
06 14.08 Ю 5 11 км 8/3 600 м
[Sc Ac As Cs]
+32.0 +27.6 78 +52 +57 опасность
перегрева
1009.1 1008.7
09 14.08 Ю 5 11 км 6/1 600 м
[Sc Ac As Cs]
+31.7 +25.8 71 +47 +50 опасность
перегрева
1006.7 1006.3
12 14.08 Ю 6 11 км 9/3 600 м
[Sc Ac As Cs]
+30.0 +26.4 81 +46 +46 опасность
перегрева
1007.8 1007.4 +32.8
15 14.08 штиль 0 11 км 9/3 600 м
[Sc Ac As Cs]
+28.3 +25.9 87 +42 +42 опасность
перегрева
1009.9 1009.4
18 14.08 СЗ 5 11 км 9/3 600 м
[Sc Ac As Cs]
+27.5 +25.4 88 +40 +40 очень
душно
1008.4 1008.0
21 14.08 ЮЗ 3 11 км 10/3 600 м
[Sc Ac As Cs]
+27.5 +23.9 81 +38 +38 очень
душно
1007.8 1007.4
00 15.08 ЮЗ 3 11 км 10/3 600 м
[Sc Ac As Cs]
+27.3 +22.7 76 +36 +36 очень
душно
1008.2 1007.7 +26.5
03 15.08 ЮЗ 3 11 км 4/1 600 м
[Sc Ac lent Cs]
+31.5 +23.6 63 +43 +52 опасность
перегрева
1009.2 1008.7
06 15.08 Ю 7 11 км 9/4 600 м
[Cu Sc Ac lent Cs]
+32.5 +26.4 70 +49 +51 опасность
перегрева
1007.8 1007.4
09 15.08 Ю 7 11 км 8/3 600 м
[Cu Sc Ac lent Cs]
+33.7 +27.8 71 +54 +55 опасность
перегрева
1005.1 1004.6
12 15.08 ЮЗ 2 11 км {дождь} 9/3 600 м
[Cu Sc Ac lent Cs]
+29.7 +27.6 89 +48 +48 опасность
перегрева
1005.1 1004.7 +34.8 17
15 15.08 штиль 0 11 км 6/3 600 м
[Sc Ac lent Cs]
+28.5 +23.7 75 +39 +39 очень
душно
1006.9 1006.5
18 15.08 ЮЗ 3 11 км 6/3 600 м
[Sc Ac lent Cs]
+27.6 +23.8 80 +38 +38 очень
душно
1006.7 1006.3
21 15.08 ЮЗ 2 11 км 6/1 600 м
[Sc Cs]
+28.0 +23.5 77 +38 +38 очень
душно
1005.7 1005.3
00 16.08 ЮЗ 3 11 км 10/3 600 м
[Sc Ac As Cs]
+27.7 +23.0 76 +37 +37 очень
душно
1006.4 1006.0 +27.0
03 16.08 штиль 0 11 км 8/3 600 м
[Sc Ac As Cs]
+31.0 +26.1 75 +46 +56 опасность
перегрева
1007.7 1007.3
06 16.08 Ю 8 11 км 8/3 600 м
[Sc Ac As Cs]
+33.5 +27.0 69 +52 +53 опасность
перегрева
1006.2 1005.8
09 16.08 штиль 0 11 км слаб. дождь 10/3 600 м
[Sc Ac As Cs]
+26.8 +24.8 89 +38 +42 очень
душно
1004.8 1004.4 12
12 16.08 Ю 10 11 км {дождь} 9/3 600 м
[Sc Ac As Cs]
+29.0 +25.5 81 +43 +43 опасность
перегрева
1005.2 1004.7 +34.6 0.2
15 16.08 ЮЗ 3 11 км 10/3 600 м
[Sc Ac As Cs]
+28.3 +24.7 81 +40 +40 очень
душно
1007.8 1007.4
18 16.08 ЮЗ 3 11 км 10/3 600 м
[Sc Ac As Cs]
+27.5 +24.3 83 +39 +39 очень
душно
1007.3 1006.9
21 16.08 ЮЗ 3 11 км в посл. час дождь 10/3 600 м
[Sc Ac As Cs]
+26.5 +24.3 88 +37 +37 очень
душно
1007.0 1006.6 0.4
00 17.08 штиль 0 11 км {дождь} 10/3 600 м
[Sc Ac As Cs]
+26.5 +24.6 89 +37 +38 очень
душно
1007.1 1006.7 +26.0 13
03 17.08 Ю 6 11 км 9/3 600 м
[Sc Ac lent Cs]
+29.5 +25.2 78 +43 +45 опасность
перегрева
1009.0 1008.5
06 17.08 ЮВ 5 11 км 9/3 600 м
[Sc Ac As Cs]
+33.2 +26.8 69 +51 +55 опасность
перегрева
1007.7 1007.3
09 17.08 штиль 0 11 км 9/3 600 м
[Sc Ac As Cs]
+31.5 +26.3 74 +48 +52 опасность
перегрева
1006.2 1005.8
12 17.08 штиль 0 11 км 8/3 600 м
[Sc Ac As Cs]
+29.7 +24.2 72 +41 +41 опасность
перегрева
1006.7 1006.3 +33.9
15 17.08 штиль 0 11 км 8/3 600 м
[Sc Ac lent Cs]
+28.4 +23.6 75 +39 +39 очень
душно
1009.8 1009.4
18 17.08 ЮЗ 2 11 км 8/3 600 м
[Sc Ac lent Cs]
+27.4 +23.2 78 +37 +37 очень
душно
1009.4 1008.9
21 17.08 штиль 0 11 км 8/3 600 м
[Sc Ac lent Cs]
+27.6 +23.2 77 +37 +37 очень
душно
1009.1 1008.6
00 18.08 Ю 6 11 км 8/3 600 м
[Sc Ac lent Cs]
+26.8 +23.1 80 +36 +36 очень
душно
1010.1 1009.6 +26.2
03 18.08 Ю 2 11 км 6/3 600 м
[Cu Sc Ac lent Cs]
+30.8 +25.4 73 +45 +53 опасность
перегрева
1011.6 1011.1
06 18.08 ЮВ 10 11 км 8/3 600 м
[Cu Sc Ac lent Cs]
+33.7 +26.5 66 +50 +51 опасность
перегрева
1009.3 1008.9
09 18.08 Ю 10 11 км 8/3 600 м
[Cu med, cong Ac lent Cs]
+33.4 +26.9 69 +51 +52 опасность
перегрева
1007.6 1007.2
12 18.08 ЮВ 3 11 км {дождь} 8/3 600 м
[Sc Ac lent Cs]
+28.5 +25.5 84 +42 +42 опасность
перегрева
1008.9 1008.5 +34.6 1
15 18.08 ЮЗ 2 11 км 8/3 600 м
[Sc Ac lent Cs]
+28.2 +24.0 78 +39 +39 очень
душно
1010.6 1010.2
18 18.08 З 10 11 км 9/3 600 м
[Sc Ac lent Cs]
+27.5 +22.9 76 +37 +37 очень
душно
1009.7 1009.3
21 18.08 СЗ 3 11 км 8/3 600 м
[Sc Ac lent Cs]
+26.9 +22.8 78 +36 +36 очень
душно
1008.5 1008.1
00 19.08 З 3 11 км 9/3 600 м
[Sc Cs]
+26.0 +23.7 87 +35 +36 очень
душно
1009.2 1008.8 +25.5
03 19.08 ЮЗ 5 11 км 8/3 600 м
[Sc Ac lent Cs]
+30.6 +23.0 64 +41 +44 опасность
перегрева
1009.7 1009.2
06 19.08 Ю 9 11 км 8/3 600 м
[Sc Ac lent Cs]
+34.5 +25.7 60 +49 +50 опасность
перегрева
1007.8 1007.4
09 19.08 ЮВ 8 11 км 8/3 600 м
[Sc Ac lent Cs]
+33.8 +26.0 64 +50 +50 опасность
перегрева
1006.4 1005.9
12 19.08 Ю 5 11 км 6/3 600 м
[Sc Cs]
+30.4 +26.3 79 +46 +46 опасность
перегрева
1005.9 1005.5 +35.1

 

Местоположение метеостанции Пхетчабури (Таиланд): широта 13.15 долгота 100.06 высота над уровнем моря 4 м.

В архиве по умолчанию представлена погода в Пхетчабури за последнюю неделю. Архивные данные за месяц целиком и за предыдущие месяцы, начиная с января 2011 года, Вы можете получить, выбрав интересующий диапазон дат из раскрывающегося списка и нажав кнопку "Ввод!".


*Определитесь, кто Вы:
робот инопланетянин человек

Внимание! Время в таблицах - всемирное. Для получения местного времени необходимо прибавить поправку, которая равна 7 ч.

Смотрите также архив погоды в соседних городах и на ближайших метеорологических станциях:

Погода в Самутсонгкхраме (Таиланд) (29 км)
Погода в Бангкок Пилот (Таиланд) (64 км)
Погода в Хуахине (Таиланд) (65 км)
Погода в Нонг Флуб Агромете (Таиланд) (73 км)
Погода на Ко Сичан (Таиланд) (80 км)
Погода в Бангкоке 2 (Таиланд) (82 км)
Погода в Бангна Агромете (Таиланд) (84 км)
Погода в Бангкоке (Таиланд) (84 км)
Погода в Самутрудкан Агромете (Таиланд) (85 км)
Погода в Паттайе (Таиланд) (90 км)

Пояснения к столбцам:

Ветер - указаны скорость ветра в м/с - средняя за 10 мин, порывы в срок и между сроками (в фигурных скобках) и направление, откуда дует ветер: С - северный, СВ - северо-восточный, В - восточный, ЮВ - юго-восточный, Ю - южный, ЮЗ - юго-западный, З - западный, СЗ - северо-западный.
Видимость - горизонтальная дальность видимости в метрах или километрах. При видимости от 1 до 10 км при отсутствии осадков обычно наблюдается дымка, при ухудшении видимости до 1 км и менее - туман. В сухую погоду видимость может ухудшаться дымом, пылью или мглою.
Явления - указаны атмосферные явления, наблюдавшиеся в срок или в последний час перед сроком; фигурными скобками обозначены явления, наблюдавшиеся между сроками (за 1-3 часа до срока); квадратными скобками обозначены град или гололедные отложения с указанием их диаметра в мм.
Облачность - указаны через наклонную черту общая и нижняя облачность в баллах и высота нижней границы облаков в метрах; квадратными скобками обозначены формы облаков: Ci - перистые, Cs - перисто-слоистые, Cc - перисто-кучевые, Ac - высококучевые, As - высокослоистые, Sc - слоисто-кучевые, Ns - слоисто-дождевые, Cu - кучевые, Cb - кучево-дождевые. Подробнее классификацию облаков см. в Атласе облаков (PDF).
T - Температура воздуха - температура, измеренная на высоте 2 м над землей.
Td - Температура точки росы - температура, при понижении до которой содержащийся в воздухе водяной пар достигнет насыщения.
f - Относительная влажность воздуха - влажноcть воздуха, измеренная на высоте 2 м над землей.
Te - Эффективная температура - температура, которую ощущает одетый по сезону человек в тени. Характеристика душности погоды. При расчете учитывается влияние влажности воздуха и скорости ветра на теплоощущения человека.
Tes - Эффективная температура на солнце - температура, которую ощущает человек, с поправкой на солнечный нагрев. Характеристика знойности погоды. Зависит от высоты солнца над горизонтом, облачности и скорости ветра. Ночью, в пасмурную погоду, а также при ветре 12 м/с и более поправка равна нулю.
P - Атмосферное давление - приведенное к уровню моря атмосферное давление.
Po - Атмосферное давление - измеренное на уровне метеостанции атмосферное давление.
Tmin - Минимальная температура - минимум температуры воздуха на высоте 2 м над землей.
Tmax - Максимальная температура - максимум температуры воздуха на высоте 2 м над землей.
R - Количество осадков - Количество выпавших осадков за период времени, мм. При наведении курсора мыши на число - период времени, за который выпало указанное количество осадков.
R24 - Количество осадков - Количество выпавших осадков за 24 часа, мм.
S - Снежный покров - Высота снежного покрова, см. При наведении курсора мыши на число - состояние снежного покрова и степень покрытия местности в баллах.